Date,TemperatureHighF,TemperatureAvgF,TemperatureLowF,DewpointHighF,DewpointAvgF,DewpointLowF,HumidityHigh,HumidityAvg,HumidityLow,PressureMaxIn,PressureMinIn,WindSpeedMaxMPH,WindSpeedAvgMPH,GustSpeedMaxMPH,PrecipitationSumIn
2013-2-1,69,60,53,39,28,20,47,30,16,0.00,40.00,8,4,15,0.00
2013-2-2,72,62,55,39,28,18,48,29,17,0.00,40.00,7,4,14,0.00
2013-2-3,64,57,50,43,40,34,74,54,36,0.00,40.00,10,4,17,0.00
2013-2-4,65,56,47,49,40,34,88,58,35,0.00,40.00,9,4,16,0.00
2013-2-5,63,52,42,47,40,29,99,68,37,0.00,40.00,8,3,13,0.00
2013-2-6,56,45,38,44,41,35,99,86,57,0.00,40.00,8,3,15,0.00
2013-2-7,62,49,41,46,38,28,99,71,29,0.00,40.00,8,4,14,0.00
2013-2-8,41,38,33,39,36,32,99,94,81,0.00,40.00,15,8,26,0.00
2013-2-9,44,37,32,36,33,30,99,88,63,0.00,40.00,10,3,15,0.00
2013-2-10,42,38,33,37,33,29,96,84,62,0.00,40.00,8,3,13,0.00
2013-2-11,48,39,32,36,30,11,95,74,31,0.00,40.00,10,3,17,0.00
2013-2-12,53,43,33,27,16,9,56,33,20,0.00,40.00,8,5,15,0.00
2013-2-13,59,50,42,36,21,10,66,34,23,0.00,40.00,9,5,16,0.00
2013-2-14,67,57,47,32,25,22,42,29,20,0.00,40.00,11,5,19,0.00
2013-2-15,68,61,54,23,15,3,28,17,9,0.00,40.00,21,7,35,0.00
2013-2-16,72,62,49,23,12,2,28,15,7,0.00,40.00,19,7,31,0.00
2013-2-17,61,52,44,44,25,14,92,38,19,0.00,40.00,9,4,17,0.00
2013-2-18,57,47,39,42,31,18,99,57,26,0.00,40.00,8,4,14,0.00
2013-2-19,42,39,36,40,37,33,99,92,76,0.00,40.00,14,6,23,0.00
2013-2-20,43,36,31,37,32,27,99,84,57,0.00,40.00,16,8,31,0.00
2013-2-21,44,37,31,38,33,28,97,86,72,0.00,40.00,7,4,14,0.00
2013-2-22,55,44,34,34,26,18,87,50,28,0.00,40.00,11,5,19,0.00
2013-2-23,56,46,35,33,28,23,82,50,28,0.00,40.00,9,4,17,0.00
2013-2-24,53,46,36,27,10,-1,65,27,12,0.00,40.00,19,9,32,0.00
2013-2-25,59,49,40,20,11,2,41,22,16,0.00,40.00,11,6,18,0.00
2013-2-26,64,53,42,20,12,6,27,19,14,0.00,40.00,14,7,22,0.00
2013-2-27,62,54,48,12,8,4,21,16,13,0.00,40.00,16,11,26,0.00
2013-2-28,67,58,50,14,8,3,19,13,11,0.00,40.00,21,8,40,0.00